Northumberland Strait - western half: Past 24 Hour Conditions

 

Winterland

08:30 AM NDT 31 July 2014
This table is a summary of hourly weather conditions for the past 24 hours.
Date / Time
(NDT)
Wind(knots) Conditions Visibility(km) Pressure(kPa) Air tempC) Relative humidity(%) Dew pointC) Humidex
31 July 2014
8:30 SSE 3 Cloudy 15 102.3 21 93 20 29
7:30 SSE 3 Cloudy 15 102.3 20 95 20 28
6:30 ESE 4 Cloudy 15 102.3 19 96 19 *
5:30 E 5 Cloudy 15 102.2 19 96 18 *
4:30 calm Mostly Cloudy 15 102.2 19 98 18 *
3:30 calm Cloudy 0.3 102.2 18 98 18 *
2:30 SW 5 Cloudy 0.3 102.2 18 98 18 *
1:30 calm Cloudy 15 102.2 18 98 18 *
0:30 calm Partly Cloudy 0.3 102.2 18 98 17 *
30 July 2014
23:30 W 2 Cloudy 11 102.2 18 97 18 *
22:30 WNW 4 Cloudy 0.3 102.2 19 98 18 *
21:30 WNW 3 Cloudy 0.3 102.1 19 98 18 *
20:30 WNW 6 Mainly Sunny 15 102.1 21 92 19 28
19:30 WNW 9 Cloudy 15 102.0 21 93 20 28
18:30 NW 10 Cloudy 15 102.0 21 93 20 28
17:30 WSW 9 Cloudy 15 102.0 24 81 21 33
16:30 SW 11 gust 16 Cloudy 15 102.0 23 86 21 32
15:30 SSW 8 Mostly Cloudy 15 101.9 27 74 22 36
14:30 SW 10 Cloudy 15 102.0 25 79 21 34
13:30 WSW 10 gust 17 Cloudy 15 102.0 24 84 21 33
12:30 SSW 13 gust 21 Cloudy 15 102.0 22 90 20 30
11:30 SSW 11 gust 17 Cloudy 15 101.9 24 86 21 32
10:30 S 8 Cloudy 15 101.9 24 86 21 32
9:30 SSW 6 gust 15 Mostly Cloudy 15 101.9 23 91 22 32
8:30 S 4 Mostly Cloudy 15 101.9 23 90 21 32
 
Map of Atlantic - Newfoundland marine weather areas Southwestern Grand Banks - 44138 Banquereau - 44139 Tail of the Bank - 44140 Nickerson Bank - 44251 Northeast Burgeo Bank - 44255 Blanc-Sablon Airport Cap Whittle Chevery Natashquan Airport Heath Point Miscou Island Grand Étang Ingonish Beach North Mountain St.Paul Island J.A. Douglas McCurdy Sydney Airport Charlottetown Airport East Point North Cape Argentia Bonavista Burgeo Cape Race Corner Brook Daniel's Harbour Englee Ferolle Point La Scie Port aux Basques Rocky Harbour Sagona Island St. Anthony Airport St. John's Int'l Airport St. Lawrence Stephenville Airport Twillingate Winterland Wreckhouse Cartwright Airport Mary's Harbour Grates Cove Pool's Island Marticot Island Long Pond Îles de la Madeleine Airport
Legend: buoyBuoy land stationLand Station